Weather History for Fairmont, MN

Change the Weather History Date:

Tuesday, April 8, 2014

  Actual Average Record
Temperature  
Mean Temperature 42 °F -  
Max Temperature 48 °F 50 °F 82 °F (1988)
Min Temperature 35 °F 32 °F 8 °F (1997)
Degree Days  
Heating Degree Days 24    
Moisture  
Dew Point 32 °F    
Average Humidity 70    
Maximum Humidity 87    
Minimum Humidity 46    
Precipitation  
Precipitation 0.00 in - - ()
Sea Level Pressure  
Sea Level Pressure 29.98 in    
Wind  
Wind Speed 14 mph (NW)    
Max Wind Speed 23 mph    
Max Gust Speed 26 mph    
Visibility 10 miles    
Events      
Averages and records for this station are not official NWS values.
T = Trace of Precipitation, MM = Missing Value Source: NWS Daily Summary

Daily Weather History Graph

Daily Weather History Graph

Search for Another Location

Airport:

Trip Planner

Search our weather history database for the weather conditions in past years. The results will help you decide how hot, cold, wet, or windy it might be!

Date:

Astronomy

Apr. 08, 2014 Rise Set
Actual Time 6:46 AM CDT 7:52 PM CDT
Civil Twilight 6:17 AM CDT 8:22 PM CDT
Nautical Twilight 5:42 AM CDT 8:57 PM CDT
Astronomical Twilight 5:05 AM CDT 9:34 PM CDT
Moon 1:36 PM CDT (4/8) 3:11 AM CDT (4/8)
Length of Visible Light 14h 04m
Length of Day
13h 05m
Waxing Gibbous, 63% of the Moon is Illuminated
Apr 8
Waxing Gibbous
Apr 15
Full
Apr 22
Last Quarter
Apr 29
New
May 6
First Quarter

Hourly Weather History & Observations

Time (CDT) Temp. Windchill Dew Point Humidity Pressure Visibility Wind Dir Wind Speed Gust Speed Precip Events Conditions
12:15 AM 42.8 °F 35.4 °F 33.8 °F 70% 29.87 in 10.0 mi NW 15.0 mph - N/A   Clear
12:35 AM 42.8 °F 35.1 °F 33.8 °F 70% 29.87 in 10.0 mi NW 16.1 mph - N/A   Clear
12:55 AM 42.8 °F 35.1 °F 33.8 °F 70% 29.87 in 10.0 mi NW 16.1 mph - N/A   Clear
1:15 AM 41.0 °F 33.1 °F 33.8 °F 76% 29.87 in 10.0 mi NW 15.0 mph - N/A   Clear
1:35 AM 41.0 °F 34.3 °F 33.8 °F 76% 29.87 in 10.0 mi NW 11.5 mph - N/A   Mostly Cloudy
1:55 AM 41.0 °F 33.5 °F 33.8 °F 76% 29.87 in 10.0 mi NW 13.8 mph - N/A   Mostly Cloudy
2:15 AM 41.0 °F 33.9 °F 35.6 °F 81% 29.87 in 10.0 mi NW 12.7 mph - N/A   Overcast
2:35 AM 41.0 °F 34.3 °F 35.6 °F 81% 29.87 in 10.0 mi NW 11.5 mph - N/A   Overcast
2:55 AM 41.0 °F 33.9 °F 35.6 °F 81% 29.87 in 10.0 mi NW 12.7 mph - N/A   Overcast
3:15 AM 41.0 °F 33.9 °F 35.6 °F 81% 29.87 in 10.0 mi NW 12.7 mph - N/A   Overcast
3:35 AM 41.0 °F 34.3 °F 35.6 °F 81% 29.87 in 10.0 mi NNW 11.5 mph - N/A   Overcast
3:55 AM 39.2 °F 31.2 °F 35.6 °F 87% 29.87 in 10.0 mi NW 13.8 mph - N/A   Overcast
4:15 AM 39.2 °F 30.8 °F 35.6 °F 87% 29.88 in 10.0 mi NW 15.0 mph - N/A   Overcast
4:35 AM 39.2 °F 30.5 °F 33.8 °F 81% 29.88 in 10.0 mi NNW 16.1 mph 23.0 mph N/A   Overcast
4:55 AM 39.2 °F 30.8 °F 33.8 °F 81% 29.89 in 10.0 mi NNW 15.0 mph - N/A   Overcast
5:15 AM 39.2 °F 31.2 °F 33.8 °F 81% 29.90 in 10.0 mi NW 13.8 mph - N/A   Overcast
5:35 AM 37.4 °F 29.8 °F 33.8 °F 87% 29.91 in 10.0 mi NW 11.5 mph - N/A   Scattered Clouds
5:55 AM 37.4 °F 28.2 °F 33.8 °F 87% 29.91 in 10.0 mi NNW 16.1 mph - N/A   Mostly Cloudy
6:15 AM 37.4 °F 29.3 °F 32.0 °F 81% 29.92 in 10.0 mi NNW 12.7 mph - N/A   Overcast
6:35 AM 37.4 °F 28.5 °F 32.0 °F 81% 29.93 in 10.0 mi NNW 15.0 mph - N/A   Scattered Clouds
6:55 AM 37.4 °F 28.5 °F 33.8 °F 87% 29.94 in 10.0 mi NW 15.0 mph - N/A   Clear
7:15 AM 37.4 °F 28.9 °F 33.8 °F 87% 29.95 in 10.0 mi NW 13.8 mph - N/A   Partly Cloudy
7:35 AM 37.4 °F 28.2 °F 33.8 °F 87% 29.96 in 10.0 mi NW 16.1 mph - N/A   Mostly Cloudy
7:55 AM 37.4 °F 27.5 °F 33.8 °F 87% 29.97 in 10.0 mi NNW 18.4 mph 23.0 mph N/A   Overcast
8:15 AM 37.4 °F 27.2 °F 33.8 °F 87% 29.97 in 10.0 mi NNW 19.6 mph 25.3 mph N/A   Overcast
8:35 AM 37.4 °F 26.6 °F 32.0 °F 81% 29.98 in 10.0 mi NNW 21.9 mph 26.5 mph N/A   Overcast
8:55 AM 37.4 °F 26.9 °F 30.2 °F 75% 29.98 in 10.0 mi NNW 20.7 mph 25.3 mph N/A   Overcast
9:15 AM 39.2 °F 28.7 °F 32.0 °F 75% 29.99 in 10.0 mi NW 23.0 mph - N/A   Mostly Cloudy
9:35 AM 39.2 °F 29.3 °F 32.0 °F 75% 29.99 in 10.0 mi NW 20.7 mph 24.2 mph N/A   Mostly Cloudy
9:55 AM 39.2 °F 29.6 °F 30.2 °F 70% 30.00 in 10.0 mi NW 19.6 mph 26.5 mph N/A   Mostly Cloudy
10:15 AM 37.4 °F 27.5 °F 30.2 °F 75% 30.01 in 10.0 mi NW 18.4 mph - N/A   Overcast
10:55 AM 37.4 °F 27.2 °F 30.2 °F 75% 30.03 in 10.0 mi NW 19.6 mph 25.3 mph N/A   Overcast
11:15 AM 37.4 °F 27.8 °F 30.2 °F 75% 30.03 in 10.0 mi NW 17.3 mph - N/A   Overcast
11:35 AM 39.2 °F 29.6 °F 30.2 °F 70% 30.03 in 10.0 mi NW 19.6 mph 26.5 mph N/A   Overcast
11:55 AM 39.2 °F 29.6 °F 30.2 °F 70% 30.04 in 10.0 mi NW 19.6 mph 26.5 mph N/A   Overcast
12:15 PM 39.2 °F 29.6 °F 30.2 °F 70% 30.04 in 10.0 mi NW 19.6 mph - N/A   Overcast
12:35 PM 39.2 °F 30.5 °F 30.2 °F 70% 30.05 in 10.0 mi NW 16.1 mph 26.5 mph N/A   Overcast
12:55 PM 41.0 °F 32.5 °F 32.0 °F 70% 30.04 in 10.0 mi NW 17.3 mph 26.5 mph N/A   Overcast
1:15 PM 42.8 °F 34.3 °F 30.2 °F 61% 30.04 in 10.0 mi NW 19.6 mph 24.2 mph N/A   Overcast
1:35 PM 42.8 °F 35.4 °F 32.0 °F 66% 30.04 in 10.0 mi NNW 15.0 mph - N/A   Mostly Cloudy
1:55 PM 42.8 °F 36.2 °F 32.0 °F 66% 30.04 in 10.0 mi NW 12.7 mph 21.9 mph N/A   Mostly Cloudy
2:15 PM 44.6 °F 36.6 °F 33.8 °F 66% 30.04 in 10.0 mi NNW 19.6 mph 24.2 mph N/A   Mostly Cloudy
2:35 PM 46.4 °F 39.5 °F 33.8 °F 62% 30.04 in 10.0 mi NW 17.3 mph 23.0 mph N/A   Mostly Cloudy
2:55 PM 46.4 °F 39.0 °F 33.8 °F 62% 30.03 in 10.0 mi NNW 19.6 mph - N/A   Mostly Cloudy
3:15 PM 46.4 °F 39.5 °F 33.8 °F 62% 30.03 in 10.0 mi NW 17.3 mph - N/A   Mostly Cloudy
3:35 PM 46.4 °F 39.8 °F 33.8 °F 62% 30.03 in 10.0 mi NNW 16.1 mph 24.2 mph N/A   Mostly Cloudy
3:55 PM 46.4 °F 39.8 °F 33.8 °F 62% 30.03 in 10.0 mi NW 16.1 mph - N/A   Scattered Clouds
4:15 PM 48.2 °F - 33.8 °F 58% 30.03 in 10.0 mi NNW 18.4 mph 23.0 mph N/A   Mostly Cloudy
4:35 PM 48.2 °F - 32.0 °F 54% 30.03 in 10.0 mi NNW 15.0 mph 26.5 mph N/A   Partly Cloudy
4:55 PM 48.2 °F - 32.0 °F 54% 30.03 in 10.0 mi NNW 15.0 mph 24.2 mph N/A   Clear
5:15 PM 48.2 °F - 30.2 °F 50% 30.02 in 10.0 mi NNW 16.1 mph - N/A   Clear
5:35 PM 48.2 °F - 30.2 °F 50% 30.02 in 10.0 mi NNW 16.1 mph - N/A   Clear
5:55 PM 48.2 °F - 28.4 °F 46% 30.03 in 10.0 mi NNW 18.4 mph 23.0 mph N/A   Clear
6:15 PM 48.2 °F - 28.4 °F 46% 30.03 in 10.0 mi NNW 17.3 mph - N/A   Clear
6:35 PM 48.2 °F - 28.4 °F 46% 30.03 in 10.0 mi NNW 16.1 mph - N/A   Clear
6:55 PM 48.2 °F - 28.4 °F 46% 30.03 in 10.0 mi NNW 13.8 mph - N/A   Clear
7:15 PM 48.2 °F - 28.4 °F 46% 30.04 in 10.0 mi NNW 11.5 mph - N/A   Clear
7:35 PM 46.4 °F 41.9 °F 28.4 °F 50% 30.04 in 10.0 mi NNW 9.2 mph - N/A   Clear
7:55 PM 44.6 °F 40.7 °F 28.4 °F 53% 30.05 in 10.0 mi NW 6.9 mph - N/A   Clear
8:15 PM 42.8 °F 39.3 °F 28.4 °F 57% 30.05 in 10.0 mi NW 5.8 mph - N/A   Clear
8:35 PM 41.0 °F 38.0 °F 30.2 °F 65% 30.04 in 10.0 mi NW 4.6 mph - N/A   Clear
8:55 PM 39.2 °F 35.0 °F 30.2 °F 70% 30.05 in 10.0 mi WNW 5.8 mph - N/A   Clear
9:15 PM 39.2 °F - 28.4 °F 65% 30.05 in 10.0 mi Calm Calm - N/A   Clear
9:35 PM 39.2 °F 35.0 °F 28.4 °F 65% 30.05 in 10.0 mi West 5.8 mph - N/A   Clear
9:55 PM 39.2 °F 35.9 °F 30.2 °F 70% 30.04 in 10.0 mi West 4.6 mph - N/A   Clear
10:15 PM 37.4 °F 33.8 °F 28.4 °F 70% 30.04 in 10.0 mi West 4.6 mph - N/A   Clear
10:35 PM 37.4 °F 33.8 °F 28.4 °F 70% 30.03 in 10.0 mi West 4.6 mph - N/A   Clear
11:15 PM 35.6 °F - 28.4 °F 75% 30.02 in 10.0 mi Calm Calm - N/A   Clear
11:35 PM 35.6 °F - 28.4 °F 75% 30.02 in 10.0 mi Calm Calm - N/A   Clear
11:55 PM 35.6 °F - 28.4 °F 75% 30.01 in 10.0 mi Calm Calm - N/A   Clear